CAPE
1366 793 1567 1317 1157 1028 2325 1119 1469 1505 1241 1563 2046 1943 2182 1974 1804 1672 1850 2193 2516 1718
1337 927 1995 1014 1975 1381 1545 1458 1603 1493 1491 1660 1581 2016 2047 1540 1811 1987 2220 1634 1987 2058
889 1283 1091 965 726 1328 1625 1831 1596 1479 1463 1679 2060 2206 1967 1598 1584 1882 1670 1497 1818 1932
894 711 1273 1247 908 1005 1358 2115 1459 1455 1513 1330 1612 2028 2160 1861 1477 1744 1836 1726 1920 1852
924 776 635 1001 817 1082 992 1595 1336 1360 1745 1481 1559 1825 1873 1692 1395 1737 1688 1665 1718 1707
1174 688 806 855 1127 1051 1150 1030 1202 1445 1272 1104 1323 1404 1417 1605 1559 1596 1352 1267 1398 1589
1143 653 960 1050 1298 1097 996 1215 1087 1059 1257 1142 1476 1276 1411 1346 1285 1350 1328 1406 1351 1428
1056 1233 1103 1216 1201 1269 1452 1393 1394 1186 1299 1431 1427 1072 1717 1710 1708 1835 1631 1694 1678 1440
120 148 521 683 713 836 978 1193 1536 1548 1416 1337 1042 592 580 736 2071 1831 1815 1751 1761 1653
32 33 29 37 198 486 587 654 759 1081 1225 332 233 266 303 394 1455 1805 1665 1721 1904 1819
64 72 36 37 32 98 275 412 552 346 152 44 56 144 207 646 1330 1190 995 539 420 514
113 129 61 18 16 14 40 248 289 149 42 35 19 65 147 116 251 202 183 81 108 97
102 110 107 96 85 32 11 17 97 106 56 44 37 21 27 37 37 28 2 0 3 5
175 90 89 19 3 0 2 33 72 61 50 55 37 19 14 58 66 54 16 3 0 0
CIN
-0 -0 -0 -0 -0 -0 -1 -0 -0 -0 -1 -0 -0 -0 -0 -0 -0 -0 -0 -2 -4 -0
-0 -1 -0 -2 -2 -0 -0 -0 -0 -0 -0 -0 -0 -0 -0 -0 -1 -0 -0 -0 -4 -1
-0 -0 -1 -3 -5 -1 -1 -1 -0 -0 -0 -0 -0 -0 -2 -1 -2 -0 -0 -0 -0 -4
-0 -0 -0 -0 -0 -0 -0 -0 -2 -0 -0 -0 -0 -0 -0 -0 -0 -0 -0 -0 -0 -0
-0 -0 -0 -0 -0 -0 -2 -0 -0 -1 -0 -0 -0 -0 -0 -0 -0 -0 -0 -0 -0 -0
-0 -0 -0 -0 -0 -0 -1 -3 -1 -0 -0 -3 -0 -0 -1 -0 -0 -0 -0 -0 -0 -0
-0 -0 -0 -0 -0 -0 -0 -0 -0 -5 -0 -0 -0 -0 -0 -0 -1 -0 -0 -0 -0 -0
-0 -0 -0 -0 -0 -6 -0 -0 -0 -0 -1 -0 -1 -0 -0 -0 -0 -0 -0 -0 -0 -0
-10 -9 -0 -0 -0 -0 -0 -0 -0 -0 -0 -0 -5 -80 -76 -69 -0 -0 -0 -0 -0 -0
-10 -0 -0 -44 -5 -0 -0 -0 -0 -0 -0 -56 -68 -69 -87 -77 -5 -0 -0 -0 -0 -0
-6 -0 -0 -5 -6 -8 -2 -0 -0 -5 -62 -36 -104 -98 -91 -57 -3 -3 -16 -39 -57 -44
-9 -1 -35 -30 -17 -26 -17 -0 -2 -36 -67 -67 -75 -83 -64 -61 -45 -62 -54 -50 -74 -67
-10 -11 -2 -1 -0 -1 -8 -2 -18 -46 -58 -66 -69 -42 -56 -2 -3 -29 -8 -0 -63 -61
-1 -9 -10 -41 -30 -0 -0 -9 -14 -24 -34 -79 -73 -34 -34 -5 -0 -1 -23 -15 -0 -0
Wind_Speed
6 6 5 3 7 6 9 5 10 5 4 5 4 3 1 1 3 1 2 6 13 13
6 4 11 10 8 6 6 9 5 5 4 5 5 4 3 1 1 3 1 2 4 10
11 9 10 10 9 11 7 7 12 6 5 6 6 4 5 6 4 3 2 1 4 3
17 15 13 12 11 13 10 8 11 8 10 8 7 7 7 6 8 5 5 5 3 1
18 18 17 16 13 14 11 12 10 12 10 11 8 11 7 7 10 8 7 6 7 7
21 17 19 20 19 16 15 14 14 16 13 13 13 14 12 10 10 10 11 10 9 9
22 22 22 23 24 22 20 17 16 17 19 16 18 19 17 15 13 12 13 13 12 11
32 24 27 31 30 28 28 27 22 20 20 22 21 22 18 18 16 16 15 16 13 11
41 46 39 35 36 34 36 33 30 28 26 25 32 33 31 25 21 18 17 17 16 15
nan nan nan nan 40 36 37 38 40 36 39 40 37 37 32 28 26 24 22 22 22 19
nan nan nan nan nan nan 43 42 41 45 44 nan nan 44 39 31 41 43 44 42 41 37
27 44 nan nan nan nan nan 47 52 48 nan nan nan nan 52 40 43 44 45 nan 47 nan
22 23 23 nan nan nan nan nan nan 45 nan nan nan nan nan nan nan nan nan nan nan nan
25 nan nan nan nan nan nan nan nan nan nan nan nan nan nan nan nan nan nan nan nan nan
Wind_Direction
191 193 198 134 195 210 232 192 246 244 234 226 231 202 189 60 109 222 138 178 189 191
222 223 201 207 193 228 227 234 252 251 270 278 264 260 267 126 315 216 200 216 185 177
229 219 227 231 205 200 219 241 248 262 266 261 257 270 279 276 279 256 233 255 270 170
241 232 230 231 224 218 221 249 259 249 251 254 265 265 264 220 245 257 245 212 211 216
248 241 235 235 222 228 230 232 228 244 252 254 262 270 258 257 255 258 254 249 236 227
250 241 239 237 232 228 231 231 227 247 246 250 260 272 266 250 246 246 244 240 244 242
240 251 242 244 241 238 239 234 238 240 247 254 260 263 261 263 262 251 247 246 242 247
238 250 247 245 249 246 242 243 240 243 245 252 257 259 256 263 260 261 260 259 261 266
243 242 239 246 243 247 250 244 243 245 250 246 246 237 239 239 250 252 250 253 256 252
nan nan nan nan 239 248 246 250 248 245 247 246 238 229 243 246 257 256 253 248 242 246
nan nan nan nan nan nan 252 249 249 249 246 nan nan 229 235 244 249 252 251 250 249 245
254 242 nan nan nan nan nan 246 250 253 nan nan nan nan 230 241 257 258 255 nan 252 nan
265 274 263 nan nan nan nan nan nan 252 nan nan nan nan nan nan nan nan nan nan nan nan
254 nan nan nan nan nan nan nan nan nan nan nan nan nan nan nan nan nan nan nan nan nan